Temperature
14 14 14 14 14 14 14 14 14 14 14 15 15 16 15 15 15 15 15 15 15 15 15 15 15 15 15 15 15 15 15 14 14 14 14 14 14 15
14 14 14 14 13 13 14 14 14 14 14 15 15 15 15 15 15 15 15 15 15 15 15 15 15 15 15 15 14 15 15 15 14 14 14 14 14 15
14 14 14 13 13 13 13 14 14 14 14 15 15 15 15 15 15 15 15 15 15 15 15 15 15 15 15 15 14 14 14 15 15 15 14 14 15 15
14 14 13 13 13 13 13 13 14 14 14 14 14 14 15 15 15 15 15 15 15 15 15 15 15 15 14 14 14 14 14 14 15 15 15 15 14 14
14 13 13 12 12 13 13 13 13 14 14 14 14 14 14 15 15 15 15 15 15 15 15 15 15 14 14 14 14 14 14 14 14 15 15 15 15 14
14 13 13 12 12 12 12 13 13 13 13 13 13 13 14 14 14 15 15 15 15 15 14 14 14 14 14 14 14 14 14 14 14 15 15 15 15 15
14 14 13 13 13 12 12 12 13 13 13 13 13 13 13 13 14 14 15 15 15 14 14 14 14 14 14 14 14 14 14 15 14 14 15 14 14 14
14 14 13 13 13 13 12 12 12 12 12 12 12 12 12 13 13 13 14 14 14 14 14 14 14 14 14 14 14 14 14 14 14 14 14 14 14 14
14 13 13 13 13 13 13 12 12 12 12 12 12 12 12 12 12 12 13 13 13 14 14 14 14 14 13 13 14 14 14 14 14 14 14 14 14 14
13 13 13 13 13 13 13 13 13 12 12 12 12 12 12 12 12 12 12 12 12 13 13 13 14 14 14 13 13 14 14 14 14 14 14 14 14 14
13 13 13 13 13 13 13 13 13 13 13 12 12 12 11 11 11 12 12 12 12 13 13 13 13 13 14 14 13 13 13 14 14 14 14 14 14 14
13 13 13 13 13 13 13 13 13 13 13 13 13 12 12 12 12 12 12 12 12 12 12 12 12 12 13 13 14 13 13 13 13 13 13 13 13 13
12 12 12 12 12 12 12 13 13 13 13 13 13 13 12 12 12 12 12 12 12 11 12 12 12 12 12 12 13 13 12 13 13 13 13 12 12 12
12 12 12 12 12 12 12 12 12 13 13 13 13 13 12 12 12 12 11 11 11 11 11 11 11 11 11 11 11 12 12 12 12 12 12 12 12 12
11 11 11 11 12 12 12 12 12 12 12 12 12 12 12 11 11 11 11 11 11 11 11 11 11 11 11 11 11 11 11 11 11 11 11 11 11 11
10 10 11 11 11 11 11 11 12 12 12 11 11 11 11 11 10 10 10 10 10 10 10 10 10 10 10 10 10 10 10 10 10 10 10 10 10 10
10 10 10 10 11 11 11 11 11 11 11 10 10 10 10 10 10 10 10 10 10 10 10 10 10 10 10 10 10 10 10 10 10 10 10 10 10 10
9 10 10 10 10 10 10 10 10 10 10 10 10 10 10 10 10 10 10 10 10 10 10 10 10 10 10 10 10 10 10 10 9 9 9 9 10 10
9 9 9 10 10 10 10 10 10 10 10 10 10 10 9 9 9 9 9 9 9 9 9 9 9 9 9 9 10 9 9 9 9 9 9 9 9 9
9 9 9 9 9 10 10 10 10 10 9 9 9 9 9 9 9 9 9 9 9 9 9 9 9 9 8 8 8 9 9 8 8 8 8 8 9 9
9 9 9 9 9 9 9 9 9 9 9 9 9 9 9 9 8 8 8 8 8 8 8 8 8 8 8 8 8 8 8 8 8 8 8 8 8 8
8 8 8 8 8 8 8 8 8 8 8 8 8 8 8 8 8 8 8 8 8 8 8 8 8 8 8 7 7 7 8 8 7 7 7 7 7 7
8 8 7 7 7 7 7 7 7 8 8 8 8 8 7 8 8 8 8 8 7 7 7 7 7 7 7 7 7 7 7 7 7 7 7 7 7 6
Wind_Speed
6 7 6 5 6 6 5 5 5 3 3 4 4 4 9 12 14 13 12 12 11 9 8 6 5 3 2 1 0 2 4 5 6 6 7 8 8 8
4 6 6 5 5 6 6 6 6 6 5 3 4 3 5 9 13 13 14 14 14 13 11 10 8 6 5 4 3 3 5 6 7 8 8 8 8 8
3 4 6 6 6 6 6 6 8 7 7 4 3 3 5 6 7 11 13 13 13 14 14 13 11 8 7 6 5 5 5 6 7 8 9 9 7 7
2 3 5 5 7 6 7 8 8 8 7 7 4 4 5 4 5 6 8 11 12 14 15 15 13 12 11 10 9 7 6 6 7 7 8 7 4 4
3 4 5 6 6 6 7 8 8 9 8 7 5 4 3 2 2 3 4 5 8 11 14 16 16 16 15 14 13 11 9 8 7 7 6 2 1 3
4 4 4 5 6 6 7 8 8 9 8 6 5 4 3 2 3 3 4 6 5 7 10 13 16 18 18 16 15 14 12 10 8 7 6 4 3 2
4 3 3 3 4 4 4 4 6 5 5 5 4 4 4 3 4 4 6 4 5 6 5 7 10 11 13 17 18 17 15 13 11 10 9 7 6 5
5 4 3 3 3 3 5 6 6 5 5 4 4 5 5 5 4 4 4 4 4 5 6 5 5 8 10 14 18 19 18 17 15 14 13 11 10 8
6 5 3 3 3 2 4 5 7 9 9 5 5 6 4 5 5 5 5 5 4 3 4 3 3 5 9 14 18 20 20 19 18 17 16 15 13 11
6 5 4 4 3 4 4 4 5 6 8 6 6 5 4 4 4 4 4 4 2 2 4 3 3 4 3 9 16 20 21 22 20 19 17 17 16 14
3 4 5 5 6 6 5 6 7 7 9 12 12 10 9 8 6 3 3 3 2 3 4 3 2 2 2 3 7 14 18 21 21 20 19 18 17 15
1 2 4 6 7 6 6 6 8 7 5 5 8 10 8 7 9 7 5 4 3 2 4 4 2 2 3 1 1 3 7 13 18 20 21 20 18 13
1 1 2 5 7 7 5 7 9 5 3 4 3 2 2 2 1 1 2 3 3 3 4 5 3 2 2 3 2 1 2 3 7 13 18 20 20 15
2 2 3 6 7 6 3 6 7 4 3 2 2 2 2 2 1 1 1 1 1 2 4 5 3 3 2 2 3 3 1 2 3 4 7 12 16 18
3 5 6 7 6 4 4 5 6 5 4 3 3 2 1 1 2 2 2 1 1 1 1 3 3 3 3 3 3 2 3 2 2 3 4 5 6 7
4 5 6 4 1 3 3 4 4 4 4 3 3 2 2 2 1 1 1 1 2 2 3 3 3 3 3 4 4 4 4 3 2 3 4 4 6 10
4 2 1 1 2 2 3 3 3 4 3 3 3 3 2 1 0 0 0 0 1 2 3 2 2 3 4 5 5 7 6 5 4 3 3 4 6 8
2 1 1 1 2 3 3 3 3 4 3 4 4 3 2 1 1 1 1 2 2 2 2 2 1 2 2 4 7 8 6 6 4 4 4 5 6 6
6 4 4 4 5 5 5 4 4 4 4 4 4 4 3 3 2 2 1 1 2 2 3 2 2 1 3 5 5 5 4 4 3 2 4 5 6 5
8 8 8 7 7 6 6 5 5 5 5 5 5 4 4 3 3 2 2 2 3 3 3 3 2 3 4 4 4 3 3 4 4 5 4 4 6 8
8 9 8 8 7 7 6 6 6 5 5 4 4 4 3 2 2 2 3 4 4 3 4 4 4 4 3 2 4 4 3 5 7 5 4 4 4 3
7 8 8 8 7 7 6 6 6 6 6 5 4 3 3 2 3 3 4 4 4 4 4 4 4 2 1 3 5 6 5 4 5 7 7 6 3 3
7 8 8 8 8 7 7 7 7 6 5 5 5 4 4 3 3 3 4 4 4 4 4 3 2 2 2 3 4 4 5 5 3 3 2 2 4 6
Wind_Direction
223 215 208 201 195 189 172 165 177 220 259 248 240 220 214 214 212 206 209 212 207 204 201 200 197 186 176 183 296 326 324 322 319 319 319 325 334 344
217 217 213 199 200 200 191 184 191 200 231 246 240 232 198 212 212 206 209 212 211 209 210 211 210 205 202 208 227 270 296 310 312 308 310 314 326 336
240 240 239 211 204 203 198 197 202 201 225 239 233 224 199 201 199 204 209 209 211 213 216 218 217 218 222 227 232 250 274 292 301 300 298 297 302 325
241 263 268 250 226 209 206 212 212 207 213 230 223 210 216 203 188 191 203 211 211 216 220 223 224 225 229 234 236 240 253 266 281 292 297 289 289 327
236 252 264 255 244 226 220 222 219 213 208 216 214 195 193 156 149 187 204 215 216 219 223 228 229 230 231 233 235 237 245 255 269 283 298 294 355 347
240 254 264 250 243 234 227 225 216 209 201 200 193 185 181 164 161 184 205 213 222 215 219 225 231 235 236 236 238 239 242 252 262 268 268 262 264 294
217 241 275 277 257 235 230 221 208 201 192 196 194 188 191 182 202 193 209 192 220 214 214 223 227 233 237 238 240 240 237 240 246 247 244 241 243 255
197 215 251 275 271 253 247 229 208 195 195 198 208 216 216 207 192 183 183 175 230 205 201 231 207 229 233 233 235 236 233 231 233 236 233 227 229 237
199 201 221 237 241 244 267 258 234 224 214 199 210 222 215 200 188 195 199 199 215 181 170 240 207 235 239 237 236 236 233 229 228 229 227 223 223 228
206 205 219 248 249 231 231 244 245 238 229 223 222 226 210 183 186 199 200 204 210 175 167 238 227 235 241 235 235 231 228 225 224 226 228 227 227 229
215 216 224 247 260 243 222 241 253 255 248 241 240 236 225 213 204 204 200 202 235 218 185 214 250 248 254 256 247 237 230 226 225 226 228 228 230 233
240 249 250 262 275 272 220 225 245 254 244 248 247 248 237 230 230 233 230 216 201 227 183 194 246 248 295 275 309 285 244 235 231 230 228 227 227 227
293 284 287 299 299 301 250 219 235 238 225 218 221 214 190 179 200 234 205 199 199 221 181 181 203 215 265 306 315 305 236 230 226 230 229 227 224 217
301 297 297 310 305 302 273 229 219 184 151 145 142 137 131 131 121 103 110 169 221 241 188 176 191 189 207 270 294 323 318 250 236 230 226 227 227 224
302 298 302 304 299 288 245 198 163 147 146 145 143 132 112 115 103 86 67 52 11 329 191 194 199 191 197 229 259 269 295 287 233 232 224 223 227 226
322 307 307 302 212 157 129 129 138 149 149 147 141 125 111 104 86 73 60 29 356 326 320 269 239 215 232 241 247 258 236 251 235 221 228 233 231 229
308 288 269 184 145 128 115 115 119 123 117 118 123 125 132 141 274 287 195 186 276 308 321 323 303 283 270 271 272 269 267 255 241 211 212 247 243 231
17 41 351 109 106 96 102 96 88 90 88 93 92 90 87 73 290 242 243 247 265 278 282 275 278 317 307 272 240 263 273 273 264 223 219 253 269 242
37 40 49 61 72 72 72 75 75 73 78 82 79 70 62 47 36 21 360 330 315 306 297 281 245 256 292 300 299 243 259 289 288 258 232 237 265 272
38 42 49 54 58 61 62 65 68 66 65 66 65 59 50 39 25 6 348 326 312 310 305 298 274 259 263 283 288 300 225 254 279 281 267 245 256 269
39 43 46 50 53 56 58 60 65 66 64 65 59 54 48 43 19 349 331 315 306 298 300 297 289 285 271 273 280 284 272 249 262 276 290 286 277 269
41 44 43 46 48 49 51 54 58 55 48 42 31 24 22 28 11 352 339 328 316 307 302 298 304 316 265 255 274 288 297 297 281 273 260 256 279 292
44 45 42 38 36 36 37 39 43 39 30 21 11 2 1 359 347 336 326 320 314 312 312 311 312 287 263 263 279 288 295 306 306 308 290 276 276 289
Height
1519 1520 1521 1523 1525 1527 1529 1531 1534 1535 1535 1536 1538 1539 1540 1541 1542 1543 1545 1545 1546 1546 1546 1547 1548 1547 1547 1546 1545 1544 1543 1543 1543 1542 1542 1543 1542 1541
1515 1516 1517 1518 1520 1522 1524 1525 1528 1531 1531 1531 1534 1536 1537 1538 1539 1540 1542 1543 1543 1544 1544 1544 1545 1545 1545 1544 1543 1542 1541 1541 1541 1541 1541 1540 1540 1540
1511 1512 1513 1514 1515 1516 1518 1520 1522 1524 1525 1526 1530 1532 1533 1534 1535 1537 1538 1539 1540 1541 1541 1542 1542 1542 1542 1542 1541 1540 1539 1539 1538 1538 1538 1538 1538 1538
1509 1508 1508 1509 1509 1511 1512 1513 1515 1518 1520 1521 1525 1527 1529 1530 1531 1533 1534 1535 1537 1538 1538 1539 1540 1540 1540 1540 1539 1538 1537 1536 1535 1535 1535 1535 1535 1535
1507 1505 1505 1505 1506 1507 1508 1509 1510 1512 1514 1517 1519 1522 1524 1525 1527 1528 1529 1531 1533 1534 1535 1535 1536 1536 1537 1536 1536 1535 1535 1534 1533 1533 1533 1533 1532 1532
1505 1503 1502 1503 1504 1504 1504 1505 1506 1507 1508 1511 1514 1516 1518 1520 1522 1523 1525 1526 1528 1530 1531 1531 1532 1532 1532 1532 1532 1532 1532 1531 1531 1530 1530 1529 1529 1529
1504 1503 1502 1502 1502 1502 1502 1502 1503 1503 1504 1506 1509 1511 1512 1514 1516 1519 1520 1522 1523 1524 1525 1526 1527 1527 1527 1527 1527 1527 1527 1528 1528 1527 1527 1526 1526 1526
1502 1502 1502 1501 1501 1501 1501 1501 1501 1502 1503 1504 1506 1507 1508 1510 1512 1513 1515 1516 1518 1520 1520 1521 1522 1522 1522 1523 1523 1522 1523 1523 1523 1523 1523 1523 1523 1522
1500 1501 1501 1501 1501 1500 1500 1501 1501 1501 1502 1503 1504 1504 1505 1506 1508 1508 1509 1511 1513 1515 1516 1515 1516 1516 1518 1518 1518 1517 1518 1518 1518 1519 1519 1519 1519 1519
1497 1498 1499 1500 1500 1500 1500 1500 1500 1501 1501 1501 1502 1503 1504 1504 1504 1505 1505 1506 1508 1510 1511 1510 1511 1512 1513 1513 1513 1513 1513 1514 1514 1515 1515 1516 1516 1516
1494 1495 1497 1498 1499 1499 1499 1499 1499 1500 1500 1499 1500 1500 1501 1501 1502 1502 1502 1503 1504 1505 1506 1506 1506 1507 1507 1508 1509 1509 1509 1510 1511 1511 1511 1511 1512 1512
1491 1492 1493 1495 1496 1496 1497 1497 1497 1498 1497 1497 1497 1497 1498 1498 1499 1499 1499 1500 1500 1501 1502 1503 1504 1504 1503 1503 1504 1504 1505 1505 1506 1506 1506 1507 1507 1507
1487 1488 1489 1490 1491 1493 1494 1494 1495 1496 1495 1495 1496 1496 1496 1496 1496 1496 1496 1497 1497 1498 1499 1500 1500 1501 1501 1500 1500 1500 1500 1500 1501 1501 1502 1502 1502 1502
1483 1484 1485 1486 1487 1488 1489 1491 1492 1493 1494 1494 1494 1495 1494 1495 1495 1495 1495 1495 1495 1496 1497 1497 1498 1498 1498 1497 1496 1496 1495 1495 1495 1496 1496 1497 1497 1497
1480 1480 1480 1481 1482 1483 1485 1487 1489 1490 1491 1492 1493 1493 1494 1494 1494 1495 1495 1495 1495 1495 1495 1496 1496 1496 1495 1494 1492 1491 1491 1490 1490 1490 1490 1491 1491 1491
1476 1476 1476 1477 1478 1479 1481 1483 1486 1488 1489 1491 1491 1492 1493 1494 1494 1494 1495 1495 1495 1494 1494 1494 1494 1494 1493 1491 1490 1488 1488 1487 1486 1486 1485 1485 1485 1485
1472 1472 1473 1474 1475 1476 1479 1481 1483 1486 1488 1490 1491 1492 1493 1494 1494 1494 1495 1495 1494 1494 1493 1493 1492 1491 1490 1489 1487 1485 1484 1483 1482 1482 1481 1480 1480 1480
1470 1470 1471 1473 1474 1476 1478 1481 1483 1486 1488 1490 1491 1492 1492 1493 1494 1494 1493 1493 1492 1492 1491 1490 1489 1488 1487 1486 1485 1482 1481 1479 1478 1477 1476 1475 1475 1475
1472 1472 1472 1473 1475 1478 1479 1482 1484 1486 1488 1489 1491 1492 1492 1492 1492 1492 1491 1491 1490 1490 1489 1488 1486 1485 1483 1482 1481 1480 1478 1476 1475 1473 1472 1471 1469 1469
1477 1476 1476 1477 1478 1480 1482 1484 1486 1487 1488 1489 1490 1491 1491 1491 1491 1490 1489 1488 1487 1486 1485 1485 1483 1482 1480 1479 1477 1476 1475 1473 1471 1469 1467 1465 1464 1463
1483 1482 1482 1482 1482 1484 1485 1486 1487 1488 1489 1489 1490 1490 1490 1489 1488 1487 1486 1485 1484 1483 1482 1481 1480 1479 1477 1475 1474 1472 1471 1469 1467 1465 1462 1460 1458 1457
1489 1488 1487 1487 1487 1487 1487 1488 1488 1488 1489 1489 1489 1489 1488 1487 1486 1485 1484 1483 1482 1480 1479 1478 1476 1474 1473 1471 1469 1468 1466 1464 1462 1460 1458 1456 1454 1451
1492 1491 1491 1490 1489 1489 1489 1489 1488 1488 1488 1488 1487 1487 1486 1486 1485 1484 1482 1481 1479 1477 1476 1474 1472 1470 1468 1467 1465 1463 1461 1459 1457 1455 1454 1451 1449 1447